This demonstration page uses our WeatherBlox Daily Observations layout. Learn more.

Left ArrowRight Arrow

Hourly Observations for November 19, 2015

Temp ( °F °C ) Dew Point ( °F °C ) Humidity (%) Winds ( mph kmh ) Pressure ( in mb ) Visibility ( mi km ) Precip ( " mm )
12:53 am 00:53 Clear 34 1.1 19 -7.2 54 54 WNW 13 20 30.05 1018 10 16 0.00 0.00
1:53 am 01:53 Clear 31 -0.6 19 -7.2 61 61 WNW 10 17 30.07 1018 10 16 0.00 0.00
2:53 am 02:53 Clear 31 -0.6 18 -7.8 59 59 WNW 10 17 30.10 1019 10 16 0.00 0.00
3:53 am 03:53 Clear 30 -1.1 18 -7.8 61 61 WNW 10 17 30.12 1020 10 16 0.00 0.00
4:53 am 04:53 Clear 30 -1.1 19 -7.2 64 64 W 8 13 30.14 1021 10 16 0.00 0.00
5:53 am 05:53 Clear 29 -1.7 20 -6.7 69 69 NW 9 15 30.16 1021 10 16 0.00 0.00
6:53 am 06:53 Clear 28 -2.2 19 -7.2 69 69 W 8 13 30.19 1022 10 16 0.00 0.00
7:53 am 07:53 Sunny 27 -2.8 20 -6.7 75 75 WSW 8 13 30.22 1023 10 16 0.00 0.00
8:53 am 08:53 Sunny 33 0.6 21 -6.1 61 61 W 9 15 30.23 1024 10 16 0.00 0.00
9:53 am 09:53 Mostly Sunny 37 2.8 22 -5.6 54 54 WSW 14 22 30.24 1024 10 16 0.00 0.00
10:53 am 10:53 Partly Cloudy 41 5 22 -5.6 47 47 WSW 15 24 30.24 1024 10 16 0.00 0.00
11:53 am 11:53 Cloudy 43 6.1 21 -6.1 42 42 WSW 14 22 30.24 1024 10 16 0.00 0.00
12:53 pm 12:53 Cloudy 45 7.2 16 -8.9 31 31 W 14 22 30.22 1023 10 16 0.00 0.00
1:53 pm 13:53 Partly Cloudy 47 8.3 16 -8.9 29 29 WNW 16 26 30.21 1023 10 16 0.00 0.00
2:53 pm 14:53 Sunny 47 8.3 18 -7.8 31 31 WNW 16 26 30.19 1023 10 16 0.00 0.00
3:53 pm 15:53 Sunny 46 7.8 19 -7.2 34 34 W 7 11 30.19 1023 10 16 0.00 0.00
4:53 pm 16:53 Sunny 43 6.1 21 -6.1 42 42 WSW 6 9 30.20 1023 10 16 0.00 0.00
5:53 pm 17:53 Partly Cloudy 39 3.9 21 -6.1 48 48 W 3 6 30.21 1023 10 16 0.00 0.00
6:53 pm 18:53 Cloudy 39 3.9 24 -4.4 55 55 Calm 30.22 1023 10 16 0.00 0.00
7:53 pm 19:53 Cloudy 39 3.9 25 -3.9 57 57 Calm 30.22 1024 10 16 0.00 0.00
8:53 pm 20:53 Cloudy 40 4.4 21 -6.1 47 47 SSE 5 7 30.21 1023 10 16 0.00 0.00
9:53 pm 21:53 Cloudy 39 3.9 23 -5 53 53 S 6 9 30.19 1023 10 16 0.00 0.00
10:53 pm 22:53 Cloudy 40 4.4 24 -4.4 53 53 SSE 7 11 30.17 1022 10 16 0.00 0.00
11:53 pm 23:53 Cloudy 40 4.4 23 -5 51 51 SSE 6 9 30.16 1021 10 16 0.00 0.00

Powered by AerisWeather